When you browse on this site, cookies collect data to enhance your experience and personalize the content and advertising you see.
Visit our Privacy Policy to learn more. By continuing to use the site, you agree to this use of cookies and data.
  • In Latvia
  • List of Countries
  • For 7 days
  • Water Temperature
  • Weather Map
  • Weather Widgets
  • user-avatar
    Login

    Hourly Weather Folkern

    Today, 15 December, Sunday

    Time Temperature Precipitation Wind Pressure Humidity
    00:00 +2°C° 0 mm 7 mps 730 mmHg 74%
    01:00 +2°C° 0.1 mm 7 mps 730 mmHg 74%
    02:00 +3°C° 0.1 mm 7 mps 730 mmHg 74%
    03:00 +3°C° 0.1 mm 7 mps 730 mmHg 74%
    04:00 +2°C° 0.1 mm 8 mps 730 mmHg 73%
    05:00 +2°C° 0.1 mm 9 mps 730 mmHg 73%
    06:00 +2°C° 0 mm 10 mps 731 mmHg 73%
    07:00 +2°C° 0 mm 11 mps 731 mmHg 71%
    08:00 +2°C° 0 mm 12 mps 731 mmHg 69%
    09:00 +1°C° 0 mm 13 mps 731 mmHg 67%
    10:00 +1°C° 0 mm 13 mps 732 mmHg 66%
    11:00 +1°C° 0 mm 14 mps 732 mmHg 66%
    12:00 +1°C° 0 mm 13 mps 733 mmHg 67%
    13:00 +1°C° 0 mm 13 mps 733 mmHg 67%
    14:00 +1°C° 0 mm 13 mps 733 mmHg 68%
    15:00 +1°C° 0 mm 13 mps 734 mmHg 69%
    16:00 +1°C° 0 mm 13 mps 734 mmHg 69%
    17:00 +1°C° 0 mm 13 mps 734 mmHg 69%
    18:00 +1°C° 0 mm 13 mps 734 mmHg 69%
    19:00 +1°C° 0 mm 13 mps 734 mmHg 70%
    20:00 +1°C° 0 mm 13 mps 735 mmHg 70%
    21:00 +1°C° 0 mm 13 mps 735 mmHg 70%
    22:00 +1°C° 0 mm 13 mps 735 mmHg 71%
    23:00 +1°C° 0 mm 13 mps 735 mmHg 73%

    Tomorrow, 16 December, Monday

    Time Temperature Precipitation Wind Pressure Humidity
    00:00 +1°C° 0 mm 13 mps 735 mmHg 74%
    01:00 +1°C° 0 mm 13 mps 735 mmHg 74%
    02:00 +1°C° 0 mm 13 mps 735 mmHg 75%
    03:00 +1°C° 0 mm 13 mps 735 mmHg 76%
    04:00 +1°C° 0.1 mm 13 mps 735 mmHg 77%
    05:00 +1°C° 0.1 mm 13 mps 735 mmHg 79%
    06:00 +1°C° 0.1 mm 13 mps 735 mmHg 80%
    07:00 +1°C° 0.4 mm 13 mps 736 mmHg 85%
    08:00 0°C° 0.4 mm 12 mps 736 mmHg 89%
    09:00 0°C° 0.4 mm 12 mps 737 mmHg 93%
    10:00 +1°C° 0.8 mm 11 mps 737 mmHg 92%
    11:00 +2°C° 0.8 mm 11 mps 737 mmHg 91%
    12:00 +2°C° 0.8 mm 11 mps 738 mmHg 90%
    13:00 +2°C° 1 mm 11 mps 738 mmHg 89%
    14:00 +2°C° 1 mm 10 mps 738 mmHg 88%
    15:00 +2°C° 1 mm 10 mps 738 mmHg 88%
    16:00 +2°C° 1.8 mm 11 mps 739 mmHg 89%
    17:00 +2°C° 1.8 mm 11 mps 739 mmHg 90%
    18:00 +1°C° 1.8 mm 11 mps 739 mmHg 91%
    19:00 +2°C° 0.8 mm 11 mps 740 mmHg 87%
    20:00 +2°C° 0.8 mm 11 mps 740 mmHg 83%
    21:00 +2°C° 0.8 mm 11 mps 741 mmHg 79%
    22:00 +2°C° 0.3 mm 10 mps 741 mmHg 81%
    23:00 +1°C° 0.3 mm 9 mps 742 mmHg 84%

    Day after tomorrow, 17 December, Tuesday

    Time Temperature Precipitation Wind Pressure Humidity
    00:00 +1°C° 0.3 mm 9 mps 742 mmHg 87%
    01:00 +1°C° 0.1 mm 8 mps 742 mmHg 87%
    02:00 +2°C° 0.1 mm 7 mps 743 mmHg 87%
    03:00 +2°C° 0.1 mm 6 mps 743 mmHg 87%
    04:00 +2°C° 0 mm 6 mps 743 mmHg 87%
    05:00 +2°C° 0 mm 6 mps 743 mmHg 88%
    06:00 +2°C° 0 mm 6 mps 744 mmHg 88%
    07:00 +1°C° 0 mm 5 mps 744 mmHg 87%
    08:00 +1°C° 0 mm 5 mps 745 mmHg 87%
    09:00 +1°C° 0 mm 4 mps 745 mmHg 86%
    10:00 +1°C° 0 mm 4 mps 745 mmHg 86%
    11:00 +3°C° 0 mm 3 mps 745 mmHg 85%
    12:00 +3°C° 0 mm 3 mps 746 mmHg 84%
    13:00 +3°C° 0 mm 3 mps 746 mmHg 85%
    14:00 +3°C° 0 mm 3 mps 746 mmHg 85%
    15:00 +3°C° 0 mm 3 mps 746 mmHg 85%
    16:00 +4°C° 0.1 mm 2 mps 746 mmHg 85%
    17:00 +4°C° 0.1 mm 2 mps 746 mmHg 84%
    18:00 +4°C° 0.1 mm 2 mps 747 mmHg 84%
    19:00 +4°C° 0 mm 2 mps 747 mmHg 85%
    20:00 +4°C° 0 mm 2 mps 747 mmHg 86%
    21:00 +3°C° 0 mm 2 mps 747 mmHg 87%
    22:00 +3°C° 0 mm 2 mps 748 mmHg 86%
    23:00 +2°C° 0 mm 3 mps 748 mmHg 85%

    18 December, Wednesday

    Time Temperature Precipitation Wind Pressure Humidity
    00:00 +3°C° 0 mm 4 mps 748 mmHg 84%
    01:00 +3°C° 0.1 mm 4 mps 748 mmHg 83%
    02:00 +3°C° 0.1 mm 4 mps 748 mmHg 81%
    03:00 +3°C° 0.1 mm 4 mps 748 mmHg 80%
    04:00 +2°C° 0.1 mm 5 mps 749 mmHg 78%
    05:00 +2°C° 0.1 mm 6 mps 749 mmHg 77%
    06:00 +3°C° 0.1 mm 7 mps 749 mmHg 76%
    07:00 +3°C° 0.1 mm 7 mps 749 mmHg 79%
    08:00 +3°C° 0.1 mm 7 mps 749 mmHg 82%
    09:00 +2°C° 0.1 mm 8 mps 749 mmHg 86%
    10:00 +2°C° 0 mm 8 mps 749 mmHg 84%
    11:00 +2°C° 0 mm 9 mps 750 mmHg 82%
    12:00 +2°C° 0 mm 9 mps 750 mmHg 80%
    13:00 +1°C° 0 mm 9 mps 750 mmHg 80%
    14:00 +1°C° 0 mm 9 mps 749 mmHg 80%
    15:00 +1°C° 0 mm 9 mps 749 mmHg 81%
    16:00 +1°C° 0 mm 9 mps 749 mmHg 79%
    17:00 +1°C° 0 mm 9 mps 749 mmHg 77%
    18:00 +1°C° 0 mm 9 mps 749 mmHg 75%
    19:00 +1°C° 0 mm 9 mps 748 mmHg 73%
    20:00 +1°C° 0 mm 9 mps 748 mmHg 71%
    21:00 +1°C° 0 mm 9 mps 748 mmHg 69%
    22:00 +1°C° 0 mm 10 mps 748 mmHg 70%
    23:00 0°C° 0 mm 10 mps 747 mmHg 70%

    19 December, Thursday

    Time Temperature Precipitation Wind Pressure Humidity
    00:00 -1°C° 0 mm 11 mps 747 mmHg 70%
    01:00 +1°C° 0 mm 11 mps 746 mmHg 71%
    02:00 +1°C° 0 mm 11 mps 746 mmHg 71%
    03:00 +1°C° 0 mm 11 mps 745 mmHg 72%
    04:00 +1°C° 0 mm 11 mps 744 mmHg 71%
    05:00 0°C° 0 mm 12 mps 744 mmHg 71%
    06:00 +2°C° 0 mm 12 mps 743 mmHg 70%
    07:00 +1°C° 0 mm 13 mps 743 mmHg 70%
    08:00 +1°C° 0 mm 13 mps 742 mmHg 70%
    09:00 +1°C° 0 mm 14 mps 742 mmHg 70%
    10:00 +3°C° 0.2 mm 14 mps 741 mmHg 71%
    11:00 +3°C° 0.2 mm 14 mps 740 mmHg 72%
    12:00 +2°C° 0.2 mm 15 mps 738 mmHg 73%
    13:00 +4°C° 0.7 mm 14 mps 737 mmHg 74%
    14:00 +4°C° 0.7 mm 13 mps 736 mmHg 75%
    15:00 +5°C° 0.7 mm 13 mps 734 mmHg 77%
    16:00 +5°C° 0.5 mm 12 mps 734 mmHg 81%
    17:00 +6°C° 0.5 mm 11 mps 734 mmHg 86%
    18:00 +6°C° 0.5 mm 10 mps 734 mmHg 90%
    19:00 +5°C° 0.7 mm 12 mps 734 mmHg 87%
    20:00 +5°C° 0.7 mm 13 mps 735 mmHg 83%
    21:00 +5°C° 0.7 mm 15 mps 736 mmHg 79%
    22:00 +5°C° 0 mm 14 mps 737 mmHg 80%
    23:00 +5°C° 0 mm 14 mps 738 mmHg 81%

    20 December, Friday

    Time Temperature Precipitation Wind Pressure Humidity
    00:00 +5°C° 0 mm 13 mps 738 mmHg 82%
    01:00 +4°C° 0 mm 13 mps 739 mmHg 81%
    02:00 +4°C° 0 mm 13 mps 739 mmHg 81%
    03:00 +4°C° 0 mm 13 mps 739 mmHg 80%
    04:00 +4°C° 0.1 mm 13 mps 739 mmHg 79%
    05:00 +4°C° 0.1 mm 13 mps 739 mmHg 78%
    06:00 +3°C° 0.1 mm 13 mps 739 mmHg 77%
    07:00 +3°C° 0 mm 12 mps 740 mmHg 78%
    08:00 +3°C° 0 mm 11 mps 740 mmHg 79%
    09:00 +3°C° 0 mm 11 mps 740 mmHg 80%
    10:00 +3°C° 0 mm 10 mps 740 mmHg 79%
    11:00 +3°C° 0 mm 9 mps 740 mmHg 79%
    12:00 +3°C° 0 mm 9 mps 740 mmHg 78%
    13:00 +4°C° 0 mm 8 mps 740 mmHg 78%
    14:00 +4°C° 0 mm 8 mps 740 mmHg 78%
    15:00 +3°C° 0 mm 7 mps 740 mmHg 79%
    16:00 +3°C° 0 mm 7 mps 740 mmHg 79%
    17:00 +3°C° 0 mm 7 mps 740 mmHg 80%
    18:00 +3°C° 0 mm 7 mps 740 mmHg 80%
    19:00 +2°C° 0 mm 7 mps 740 mmHg 80%
    20:00 +2°C° 0 mm 7 mps 740 mmHg 81%
    21:00 +2°C° 0 mm 6 mps 740 mmHg 81%
    22:00 +2°C° 0 mm 6 mps 740 mmHg 81%
    23:00 +2°C° 0 mm 6 mps 740 mmHg 81%
    Show more